EHI
0 0 0 0 0 0 0 0 0 0 0 0 0 0 0 0 0 0 0 0 0 0 0 0 0 0 0 0 0 0 0 0 0 0 0 0 0 0 0 0 0 0 0
0 0 0 0 0 0 0 0 0 0 0 0 0 0 0 0 0 0 0 0 0 0 0 0 0 0 0 0 0 0 0 0 0 0 0 0 0 0 0 0 0 0 0
0 0 0 0 0 0 0 0 0 0 0 0 0 0 0 0 0 0 0 0 0 0 0 0 0 0 0 0 0 0 0 0 0 0 0 0 0 0 0 0 0 0 0
0 0 0 0 0 0 0 0 0 0 0 0 0 0 0 0 0 0 0 0 0 0 0 0 0 0 0 0 0 0 0 0 0 0 0 0 0 0 0 0 0 0 0
0 0 0 0 0 0 0 0 0 0 0 0 0 0 0 0 0 0 0 0 0 0 0 0 0 0 0 0 0 0 0 0 0 0 0 0 0 0 0 0 0 0 0
0 0 0 0 0 0 0 0 0 0 0 0 0 0 0 0 0 0 0 0 0 0 0 0 0 0 0 0 0 0 0 0 0 0 0 0 0 0 0 0 0 0 0
0 0 0 0 0 0 0 0 0 0 0 0 0 0 0 0 0 0 0 0 0 0 0 0 0 0 0 0 0 0 0 0 0 0 0 0 0 0 0 0 0 0 0
0 0 0 0 0 0 0 0 0 0 0 0 0 0 0 0 0 0 0 0 0 0 0 0 0 0 0 0 0 0 0 0 0 0 0 0 0 0 0 0 0 0 0
0 0 0 0 0 0 0 0 0 0 0 0 0 0 0 0 0 0 0 0 0 0 0 0 0 0 0 0 0 0 0 0 0 0 0 0 0 0 0 0 0 0 0
0 0 0 0 0 0 0 0 0 0 0 0 0 0 0 0 0 0 0 0 0 0 0 0 0 0 0 0 0 0 0 0 0 0 0 0 0 0 0 0 0 0 0
0 0 0 0 0 0 0 0 0 0 0 0 0 0 0 0 0 0 0 0 0 0 0 0 0 0 0 0 0 0 0 0 0 0 0 0 0 0 0 0 0 0 0
0 0 0 0 0 0 0 0 0 0 0 0 0 0 0 0 0 0 0 0 0 0 0 0 0 0 0 0 0 0 0 0 0 0 0 0 0 0 0 0 0 0 0
0 0 0 0 0 0 0 0 0 0 0 0 0 0 0 0 0 0 0 0 0 0 0 0 0 0 0 0 0 0 0 0 0 0 0 0 0 0 0 0 0 0 0
0 0 0 0 0 0 0 0 0 0 0 0 0 0 0 0 0 0 0 0 0 0 0 0 0 0 0 0 0 0 0 0 0 0 0 0 0 0 0 0 0 0 0
0 0 0 0 0 0 0 0 0 0 0 0 0 0 0 0 0 0 0 0 0 0 0 0 0 0 0 0 0 0 0 0 0 0 0 0 0 0 0 0 0 0 0
0 0 0 0 0 0 0 0 0 0 0 0 0 0 0 0 0 0 0 0 0 0 0 0 0 0 0 0 0 0 0 0 0 0 0 0 0 0 0 0 0 0 0
0 0 0 0 0 0 0 0 0 0 0 0 0 0 0 0 0 0 0 0 0 0 0 0 0 0 0 0 0 0 0 0 0 0 0 0 0 0 0 0 0 0 0
0 0 0 0 0 0 0 0 0 0 0 0 0 0 0 0 0 0 0 0 0 0 0 0 0 0 0 0 0 0 0 0 0 0 0 0 0 0 0 0 0 0 0
0 0 0 0 0 0 0 0 0 0 0 0 0 0 0 0 0 0 0 0 0 0 0 0 0 0 0 0 0 0 0 0 0 0 0 0 0 0 0 0 0 0 0
0 0 0 0 0 0 0 0 0 0 0 0 0 0 0 0 0 0 0 0 0 0 0 0 0 0 0 0 0 0 0 0 0 0 0 0 0 0 0 0 0 0 0
0 0 0 0 0 0 0 0 0 0 0 0 0 0 0 0 0 0 0 0 0 0 0 0 0 0 0 0 0 0 0 0 0 0 0 0 0 0 0 0 0 0 0
0 0 0 0 0 0 0 0 0 0 0 0 0 0 0 0 0 0 0 0 0 0 0 0 0 0 0 0 0 0 0 0 0 0 0 0 0 0 0 0 0 0 0
0 0 0 0 0 0 0 0 0 0 0 0 0 0 0 0 0 0 0 0 0 0 0 0 0 0 0 0 0 0 0 0 0 0 0 0 0 0 0 0 0 0 0
0 0 0 0 0 0 0 0 0 0 0 0 0 0 0 0 0 0 0 0 0 0 0 0 0 0 0 0 0 0 0 0 0 0 0 0 0 0 0 0 0 0 0
0 0 0 0 0 0 0 0 0 0 0 0 0 0 0 0 0 0 0 0 0 0 0 0 0 0 0 0 0 0 0 0 0 0 0 0 0 0 0 0 0 0 0
0 0 0 0 0 0 0 0 0 0 0 0 0 0 0 0 0 0 0 0 0 0 0 0 0 0 0 0 0 0 0 0 0 0 0 0 0 0 0 0 0 0 0
Wind_Speed
1 2 2 3 3 4 4 5 5 5 6 6 7 7 7 8 7 7 7 8 8 8 8 8 9 8 7 6 6 7 7 8 16 14 6 6 7 8 10 8 9 9 10
1 2 3 3 4 4 5 5 5 6 6 7 7 8 8 8 8 8 8 8 8 9 8 8 9 9 9 8 7 8 8 8 12 19 11 6 8 8 9 10 10 10 8
1 2 3 4 4 5 5 6 6 6 7 7 8 8 8 8 8 8 9 9 9 9 8 9 10 10 12 10 10 11 10 11 10 14 15 8 7 7 9 10 11 10 11
1 3 4 4 5 5 6 6 6 7 8 8 8 9 9 9 9 9 9 9 9 9 9 10 11 12 13 13 12 12 11 11 11 12 14 11 8 8 8 8 9 8 9
2 3 5 5 5 5 6 6 7 8 9 9 9 9 9 8 8 9 8 9 9 10 10 11 12 17 22 19 15 11 11 11 11 12 13 12 10 7 8 7 10 8 8
3 4 5 5 6 6 6 7 8 8 8 9 9 9 9 9 18 24 19 10 9 10 10 10 12 16 20 26 28 26 22 15 12 12 12 13 12 10 8 8 10 10 10
4 5 5 6 6 6 7 7 8 8 9 9 9 9 10 11 22 25 25 16 10 9 10 11 12 13 20 13 19 25 23 26 26 17 15 14 13 11 10 12 11 12 12
5 6 6 6 6 7 7 8 9 8 8 8 9 9 9 12 23 26 26 15 10 10 11 12 13 13 13 17 13 13 13 14 18 14 12 13 14 12 12 13 13 13 12
6 6 6 6 7 7 8 9 8 8 8 8 9 9 9 12 21 25 25 10 9 10 10 11 13 13 21 27 18 14 14 13 18 24 25 23 26 26 21 11 9 10 11
6 6 6 6 7 8 9 9 8 8 9 9 9 8 9 10 19 25 25 9 9 9 9 10 18 21 25 27 16 13 15 13 12 13 16 18 16 17 23 14 9 10 10
6 6 6 7 8 9 8 8 8 8 9 9 9 8 8 12 18 23 25 12 9 10 9 8 9 22 27 28 24 14 18 19 12 11 10 9 8 8 9 9 8 9 10
6 7 7 8 8 8 8 8 8 8 9 9 9 9 7 9 15 18 24 23 21 13 10 8 11 24 27 28 21 21 26 21 8 7 8 7 7 7 6 7 8 9 9
7 8 8 8 7 7 8 8 8 7 7 8 8 9 9 7 10 22 25 25 26 16 11 20 24 27 25 17 19 23 18 8 6 7 8 7 6 6 6 6 6 7 8
8 8 7 8 8 7 6 6 6 6 7 8 9 10 10 8 7 7 9 11 16 14 12 16 22 22 18 17 15 11 6 6 7 7 7 6 6 5 6 5 5 5 5
8 8 7 7 8 8 7 6 8 8 10 13 10 9 11 12 13 23 19 11 10 11 14 9 7 7 6 6 6 6 5 6 6 5 6 6 6 6 6 5 4 4 5
7 7 6 6 6 7 8 9 13 16 23 24 24 22 16 21 27 28 27 26 26 24 16 8 7 7 7 7 7 6 5 6 5 5 6 6 6 6 6 4 4 4 5
8 8 6 7 7 8 8 9 12 13 18 22 24 25 25 27 27 26 26 24 23 21 10 7 7 7 7 7 6 7 6 6 5 6 6 6 6 6 5 5 4 4 4
8 10 10 7 7 8 8 8 10 12 13 10 13 21 25 26 25 25 24 20 11 9 6 7 7 7 7 7 7 6 6 6 5 5 6 6 5 5 5 5 4 5 4
8 7 7 7 7 8 9 9 10 11 12 12 10 12 19 21 22 22 20 8 8 8 7 7 7 7 7 7 7 7 6 6 6 6 6 6 5 5 5 5 5 8 6
7 15 15 10 8 9 9 10 10 11 11 11 11 10 10 11 9 9 8 7 7 8 8 8 7 7 7 6 6 6 6 6 6 6 6 5 5 5 5 6 5 5 4
7 10 17 12 9 9 10 10 10 10 11 11 10 13 21 13 9 9 9 8 7 8 8 8 7 7 7 6 6 7 8 7 6 6 5 5 5 5 5 5 5 5 5
7 7 7 9 10 10 11 10 10 10 11 12 11 12 21 12 8 9 9 9 8 7 7 8 7 7 6 6 7 7 7 7 7 6 6 6 5 6 6 5 5 5 5
7 8 9 10 10 15 14 10 10 10 11 11 11 11 10 9 9 9 10 9 8 7 7 7 8 7 7 6 6 7 8 8 7 6 7 7 6 6 6 6 7 7 6
7 9 11 11 11 10 11 10 10 10 11 11 11 11 10 9 9 11 10 9 9 8 7 7 8 10 12 9 7 7 7 8 8 7 9 9 8 8 7 7 8 8 7
8 10 11 11 11 11 10 11 11 11 11 11 11 11 11 10 10 10 9 9 10 10 10 9 8 9 11 13 11 10 15 19 18 12 9 9 10 10 9 9 8 8 8
9 11 11 10 10 10 10 10 11 11 11 11 11 10 11 11 10 10 9 9 9 10 10 8 9 11 12 11 13 17 21 21 21 21 13 9 10 9 9 9 10 10 10
Wind_Direction
37 7 340 324 322 312 301 296 297 298 300 297 294 293 290 287 285 283 281 283 281 282 282 280 277 276 274 268 265 262 260 261 276 282 263 256 257 264 273 272 274 273 273
32 338 317 311 307 302 298 299 304 304 302 298 296 292 289 289 287 285 286 287 285 286 287 289 290 293 289 286 280 276 272 267 273 283 283 268 260 262 265 266 271 270 262
359 314 307 305 305 301 300 303 306 303 298 296 294 292 290 288 285 281 280 280 279 280 283 285 287 287 284 281 278 277 275 276 272 278 283 278 268 264 266 266 264 265 266
294 291 292 292 294 295 298 300 298 296 294 292 288 286 284 283 282 281 278 277 275 274 274 275 278 277 278 278 277 273 272 271 268 270 276 277 271 261 258 264 269 259 262
278 283 281 283 288 291 292 291 290 288 288 285 284 283 281 282 282 282 277 272 272 274 275 274 275 278 279 281 279 271 265 266 268 268 271 273 272 266 262 260 267 267 259
276 277 280 283 284 284 285 285 285 284 284 284 283 283 283 287 296 299 300 289 279 280 283 281 281 284 285 285 285 286 282 277 274 272 276 275 276 271 268 265 269 272 271
277 277 279 279 281 282 284 288 286 285 284 284 283 283 284 288 300 303 302 300 289 284 284 285 287 286 290 282 283 284 285 284 281 278 276 275 276 271 268 270 267 266 268
278 278 279 282 284 285 286 285 285 282 283 284 286 286 287 293 303 304 305 300 287 282 280 281 282 282 281 284 277 273 270 271 273 274 266 266 266 263 255 259 264 266 264
282 283 286 291 291 290 287 284 283 285 286 285 285 287 288 295 302 304 303 291 285 281 279 282 286 285 287 291 290 284 282 277 279 278 275 275 273 274 270 262 255 261 266
283 284 290 291 288 287 284 284 285 285 285 286 286 285 287 290 299 304 304 293 289 288 284 281 288 292 294 296 292 286 286 284 279 278 277 277 276 274 277 269 259 264 268
283 288 289 286 284 283 283 283 285 285 286 286 288 287 286 291 301 303 303 300 290 291 291 289 285 295 298 298 297 290 286 289 282 277 276 271 266 259 256 251 243 247 256
287 287 285 283 284 288 286 286 285 288 291 291 292 292 284 288 295 299 301 302 303 298 295 292 289 298 300 301 301 295 297 301 292 287 283 280 277 274 266 254 245 241 242
286 283 283 285 284 283 284 288 290 288 287 290 290 292 292 284 288 297 301 302 302 300 291 295 300 303 306 304 300 302 306 302 293 289 286 282 276 274 272 267 256 250 247
286 286 287 289 288 285 282 282 285 286 287 288 290 292 293 289 283 283 282 290 295 295 292 293 299 301 300 298 300 303 295 287 293 287 288 286 283 279 278 270 266 264 259
285 286 287 286 287 289 284 277 284 274 282 293 291 289 295 296 292 298 301 298 295 291 299 293 290 293 291 291 291 292 292 296 297 289 289 293 292 287 281 273 265 257 255
288 287 286 285 286 286 289 290 285 286 295 296 296 296 295 296 302 304 305 306 308 307 307 298 297 297 297 298 300 300 297 296 294 293 292 290 294 294 289 281 270 263 262
284 286 286 284 287 287 288 293 298 297 293 294 297 299 300 301 303 305 307 308 309 311 304 292 291 293 293 294 295 295 295 294 293 291 290 290 292 293 290 285 277 271 264
286 289 292 284 283 285 286 288 291 297 301 295 294 298 302 302 305 308 309 312 306 302 282 283 285 287 288 289 290 291 292 292 291 289 288 286 286 289 290 286 279 270 264
288 286 285 282 281 283 286 288 289 289 291 295 296 298 301 304 306 305 308 298 292 290 286 282 281 282 284 285 287 288 287 288 288 289 287 285 282 282 283 282 279 279 272
282 289 295 292 288 289 288 288 288 289 290 292 295 298 301 299 296 297 292 280 282 285 284 282 281 280 281 281 283 284 285 285 286 285 284 285 286 283 281 280 276 271 262
282 287 293 294 287 287 287 286 286 287 289 291 291 294 300 301 298 296 292 285 281 283 283 281 279 279 277 277 277 279 281 283 282 281 281 280 279 280 278 273 271 267 262
281 281 282 284 286 287 288 285 287 288 290 291 292 296 301 298 290 289 288 285 279 276 276 277 277 272 269 270 273 275 277 278 277 276 276 276 273 272 271 270 269 263 257
280 284 287 286 286 290 293 288 288 288 290 291 294 295 294 290 289 290 289 287 283 280 276 274 275 274 268 264 261 262 269 273 271 269 272 274 271 268 264 263 264 261 253
281 285 288 290 290 288 289 289 290 291 291 292 293 293 292 290 289 289 289 287 285 282 278 275 274 274 273 273 269 263 261 266 267 264 262 264 266 264 260 258 256 252 249
286 288 289 289 290 291 291 292 293 293 293 294 294 294 294 292 291 291 289 287 286 285 282 279 277 276 276 275 274 271 275 279 278 274 260 257 259 257 255 254 253 252 248
288 289 290 289 289 289 290 292 293 293 293 293 294 293 293 291 291 290 289 288 288 288 286 282 277 276 277 279 277 278 282 282 280 279 272 260 256 254 252 253 252 250 248